Location: Elende
(51.4317°N, 10.6316°E)
Time: 10:27:04
(UTC+00:00)

MetOp-A - Pass Details

Date: 18 September 2020
Orbit: 820 x 821 km, 98.5° (Epoch: 25 October)

Event Time Altitude Azimuth Distance (km) Brightness Sun altitude
Exits shadow 18:22:25 - 141° (SE) 2,779 6.4 -9.8°
Reaches altitude 10° 18:23:22 10° 139° (SE) 2,415 6.1 -9.9°
Maximum altitude 18:28:28 48° 66° (ENE) 1,075 4.5 -10.7°
Drops below altitude 10° 18:33:36 10° 354° (N) 2,431 6.9 -11.5°
Sets 18:36:01 0° 349° (N) 3,368 7.7 -11.8°
